When you browse on this site, cookies collect data to enhance your experience and personalize the content and advertising you see.
Visit our Privacy Policy to learn more. By continuing to use the site, you agree to this use of cookies and data.
  • Em Portugal
  • Lista de países
  • Para 7 dias
  • Temperatura da água
  • Mapas de satélite
  • Mapa do tempo
  • Widgets de tempo
  • user-avatar
    Iniciar Sessão

    Previsão horária em Taush

    Hoje, 16 Julho, Terça-feira

    Tempo Temperatura Precipitação Vento Pressão Humidade
    00:00 +15°C° 0.5 mm 7 m/s 734 mmHg 96%
    01:00 +15°C° 0.5 mm 8 m/s 734 mmHg 95%
    02:00 +13°C° 0.3 mm 9 m/s 735 mmHg 95%
    03:00 +13°C° 0.3 mm 9 m/s 735 mmHg 95%
    04:00 +13°C° 0 mm 8 m/s 736 mmHg 97%
    05:00 +13°C° 1.7 mm 8 m/s 737 mmHg 96%
    06:00 +13°C° 1.7 mm 8 m/s 737 mmHg 94%
    07:00 +13°C° 1.7 mm 8 m/s 738 mmHg 93%
    08:00 +15°C° 0 mm 8 m/s 739 mmHg 88%
    09:00 +16°C° 0 mm 8 m/s 740 mmHg 83%
    10:00 +18°C° 0 mm 8 m/s 740 mmHg 78%
    11:00 +20°C° 0 mm 8 m/s 741 mmHg 74%
    12:00 +21°C° 0 mm 8 m/s 742 mmHg 71%
    13:00 +22°C° 0 mm 7 m/s 743 mmHg 68%
    14:00 +22°C° 0.1 mm 7 m/s 743 mmHg 68%
    15:00 +22°C° 0.1 mm 6 m/s 744 mmHg 69%
    16:00 +23°C° 0.1 mm 5 m/s 744 mmHg 69%
    17:00 +22°C° 0.1 mm 5 m/s 745 mmHg 74%
    18:00 +21°C° 0.1 mm 4 m/s 745 mmHg 79%
    19:00 +21°C° 0.1 mm 4 m/s 745 mmHg 84%
    20:00 +19°C° 0 mm 3 m/s 746 mmHg 86%
    21:00 +18°C° 0 mm 3 m/s 746 mmHg 89%
    22:00 +16°C° 0 mm 2 m/s 747 mmHg 91%
    23:00 +16°C° 0 mm 2 m/s 747 mmHg 91%

    Amanhã, 17 Julho, Quarta-feira

    Tempo Temperatura Precipitação Vento Pressão Humidade
    00:00 +15°C° 0 mm 2 m/s 747 mmHg 91%
    01:00 +14°C° 0 mm 2 m/s 748 mmHg 91%
    02:00 +14°C° 0 mm 1 m/s 748 mmHg 91%
    03:00 +14°C° 0 mm 1 m/s 748 mmHg 91%
    04:00 +13°C° 0 mm 1 m/s 748 mmHg 91%
    05:00 +14°C° 0 mm 1 m/s 748 mmHg 88%
    06:00 +16°C° 0 mm 1 m/s 748 mmHg 86%
    07:00 +16°C° 0 mm 0 m/s 749 mmHg 83%
    08:00 +19°C° 0 mm 1 m/s 749 mmHg 79%
    09:00 +21°C° 0 mm 1 m/s 748 mmHg 74%
    10:00 +22°C° 0 mm 1 m/s 748 mmHg 70%
    11:00 +23°C° 0 mm 2 m/s 748 mmHg 67%
    12:00 +23°C° 0 mm 2 m/s 748 mmHg 64%
    13:00 +24°C° 0 mm 2 m/s 748 mmHg 61%
    14:00 +24°C° 0 mm 2 m/s 748 mmHg 61%
    15:00 +24°C° 0 mm 2 m/s 748 mmHg 61%
    16:00 +24°C° 0 mm 2 m/s 748 mmHg 62%
    17:00 +24°C° 0 mm 1 m/s 748 mmHg 67%
    18:00 +23°C° 0 mm 1 m/s 748 mmHg 72%
    19:00 +22°C° 0 mm 1 m/s 748 mmHg 77%
    20:00 +20°C° 0 mm 1 m/s 748 mmHg 80%
    21:00 +19°C° 0 mm 1 m/s 748 mmHg 83%
    22:00 +16°C° 0 mm 1 m/s 748 mmHg 86%
    23:00 +16°C° 0 mm 1 m/s 748 mmHg 85%

    Depois de amanhã, 18 Julho, Quinta-feira

    Tempo Temperatura Precipitação Vento Pressão Humidade
    00:00 +15°C° 0 mm 1 m/s 747 mmHg 85%
    01:00 +14°C° 0 mm 1 m/s 747 mmHg 84%
    02:00 +14°C° 0 mm 1 m/s 747 mmHg 84%
    03:00 +14°C° 0 mm 1 m/s 747 mmHg 85%
    04:00 +13°C° 0 mm 1 m/s 747 mmHg 85%
    05:00 +15°C° 0 mm 1 m/s 747 mmHg 82%
    06:00 +16°C° 0 mm 1 m/s 747 mmHg 80%
    07:00 +18°C° 0 mm 2 m/s 746 mmHg 77%
    08:00 +19°C° 0 mm 2 m/s 746 mmHg 71%
    09:00 +22°C° 0 mm 1 m/s 746 mmHg 65%
    10:00 +23°C° 0 mm 1 m/s 746 mmHg 60%
    11:00 +24°C° 0 mm 1 m/s 746 mmHg 57%
    12:00 +25°C° 0 mm 1 m/s 746 mmHg 54%
    13:00 +26°C° 0 mm 1 m/s 745 mmHg 52%
    14:00 +26°C° 0 mm 1 m/s 745 mmHg 53%
    15:00 +26°C° 0 mm 2 m/s 745 mmHg 55%
    16:00 +26°C° 0 mm 2 m/s 745 mmHg 57%
    17:00 +25°C° 0 mm 2 m/s 744 mmHg 63%
    18:00 +24°C° 0 mm 2 m/s 744 mmHg 69%
    19:00 +22°C° 0 mm 3 m/s 744 mmHg 75%
    20:00 +21°C° 0.1 mm 3 m/s 744 mmHg 78%
    21:00 +19°C° 0.1 mm 3 m/s 744 mmHg 81%
    22:00 +18°C° 0.1 mm 3 m/s 744 mmHg 84%
    23:00 +17°C° 0.1 mm 3 m/s 743 mmHg 85%

    19 Julho, Sexta-feira

    Tempo Temperatura Precipitação Vento Pressão Humidade
    00:00 +16°C° 0.1 mm 3 m/s 743 mmHg 86%
    01:00 +16°C° 0.1 mm 3 m/s 743 mmHg 87%
    02:00 +14°C° 0.1 mm 3 m/s 743 mmHg 87%
    03:00 +14°C° 0.1 mm 3 m/s 743 mmHg 87%
    04:00 +13°C° 0.1 mm 3 m/s 743 mmHg 87%
    05:00 +14°C° 0 mm 3 m/s 743 mmHg 85%
    06:00 +17°C° 0 mm 3 m/s 743 mmHg 84%
    07:00 +18°C° 0 mm 3 m/s 743 mmHg 83%
    08:00 +20°C° 0 mm 3 m/s 743 mmHg 78%
    09:00 +21°C° 0 mm 3 m/s 743 mmHg 73%
    10:00 +24°C° 0 mm 3 m/s 743 mmHg 68%
    11:00 +25°C° 0 mm 2 m/s 743 mmHg 65%
    12:00 +26°C° 0 mm 2 m/s 744 mmHg 61%
    13:00 +27°C° 0 mm 2 m/s 744 mmHg 58%
    14:00 +27°C° 0 mm 2 m/s 744 mmHg 59%
    15:00 +27°C° 0 mm 2 m/s 744 mmHg 60%
    16:00 +27°C° 0 mm 2 m/s 744 mmHg 61%
    17:00 +27°C° 0 mm 2 m/s 744 mmHg 66%
    18:00 +26°C° 0 mm 2 m/s 744 mmHg 71%
    19:00 +25°C° 0 mm 1 m/s 744 mmHg 76%
    20:00 +23°C° 0 mm 1 m/s 744 mmHg 78%
    21:00 +22°C° 0 mm 1 m/s 744 mmHg 80%
    22:00 +18°C° 0 mm 0 m/s 744 mmHg 83%
    23:00 +18°C° 0 mm 0 m/s 744 mmHg 82%

    20 Julho, Sábado

    Tempo Temperatura Precipitação Vento Pressão Humidade
    00:00 +18°C° 0 mm 0 m/s 744 mmHg 82%
    01:00 +18°C° 0 mm 0 m/s 745 mmHg 81%
    02:00 +18°C° 0.1 mm 0 m/s 745 mmHg 82%
    03:00 +18°C° 0.1 mm 0 m/s 745 mmHg 82%
    04:00 +20°C° 0.1 mm 1 m/s 745 mmHg 83%
    05:00 +18°C° 0 mm 0 m/s 745 mmHg 82%
    06:00 +19°C° 0 mm 0 m/s 745 mmHg 81%
    07:00 +20°C° 0 mm 0 m/s 745 mmHg 80%
    08:00 +21°C° 0.1 mm 0 m/s 745 mmHg 76%
    09:00 +23°C° 0.1 mm 0 m/s 745 mmHg 72%
    10:00 +24°C° 0.1 mm 0 m/s 745 mmHg 68%
    11:00 +27°C° 0.2 mm 1 m/s 745 mmHg 65%
    12:00 +27°C° 0.2 mm 1 m/s 745 mmHg 62%
    13:00 +28°C° 0.2 mm 2 m/s 745 mmHg 59%
    14:00 +28°C° 0.1 mm 2 m/s 745 mmHg 61%
    15:00 +28°C° 0.1 mm 2 m/s 745 mmHg 62%
    16:00 +28°C° 0.1 mm 2 m/s 745 mmHg 64%
    17:00 +27°C° 0.1 mm 2 m/s 745 mmHg 70%
    18:00 +26°C° 0.1 mm 2 m/s 745 mmHg 75%
    19:00 +25°C° 0.1 mm 2 m/s 745 mmHg 81%
    20:00 +23°C° 0 mm 2 m/s 745 mmHg 83%
    21:00 +20°C° 0 mm 2 m/s 745 mmHg 86%
    22:00 +19°C° 0 mm 2 m/s 745 mmHg 88%
    23:00 +18°C° 0 mm 2 m/s 745 mmHg 89%

    21 Julho, Domingo

    Tempo Temperatura Precipitação Vento Pressão Humidade
    00:00 +18°C° 0 mm 2 m/s 745 mmHg 90%
    01:00 +18°C° 0 mm 1 m/s 745 mmHg 92%
    02:00 +16°C° 0 mm 1 m/s 745 mmHg 92%
    03:00 +16°C° 0 mm 1 m/s 745 mmHg 93%
    04:00 +16°C° 0 mm 1 m/s 745 mmHg 94%
    05:00 +17°C° 0 mm 2 m/s 745 mmHg 92%
    06:00 +18°C° 0 mm 2 m/s 745 mmHg 90%
    07:00 +19°C° 0 mm 2 m/s 745 mmHg 88%
    08:00 +20°C° 0 mm 3 m/s 745 mmHg 84%
    09:00 +21°C° 0 mm 3 m/s 745 mmHg 80%
    10:00 +24°C° 0 mm 3 m/s 745 mmHg 75%
    11:00 +23°C° 0.3 mm 4 m/s 745 mmHg 75%
    12:00 +23°C° 0.3 mm 4 m/s 745 mmHg 75%
    13:00 +25°C° 0.3 mm 5 m/s 745 mmHg 75%
    14:00 +25°C° 0.4 mm 5 m/s 745 mmHg 74%
    15:00 +23°C° 0.4 mm 5 m/s 745 mmHg 73%
    16:00 +23°C° 0.4 mm 5 m/s 745 mmHg 73%
    17:00 +23°C° 0.2 mm 4 m/s 745 mmHg 77%
    18:00 +22°C° 0.2 mm 3 m/s 745 mmHg 81%
    19:00 +21°C° 0.2 mm 3 m/s 745 mmHg 85%
    20:00 +20°C° 0 mm 3 m/s 745 mmHg 88%
    21:00 +18°C° 0 mm 3 m/s 744 mmHg 91%
    22:00 +17°C° 0 mm 3 m/s 744 mmHg 95%
    23:00 +16°C° 0 mm 3 m/s 744 mmHg 95%
    Mostrar mais